Shawnee, OK

10:04 AM CDT on July 28, 2017 (GMT -0500)
Shawnee Municipal

Weather History for KSNL - April, 2013

Change the Weather History Date:

Saturday, April 6, 2013

  Actual Average (KTIK) Record (KTIK)
Temperature  
Mean Temperature 68 °F -  
Max Temperature 78 °F 65 °F 89 °F (2011)
Min Temperature 59 °F 46 °F 30 °F (2009)
Cooling Degree Days 4    
Growing Degree Days 18 (Base 50)    
Moisture  
Dew Point 53 °F    
Average Humidity 62    
Maximum Humidity 77    
Minimum Humidity 44    
Precipitation  
Precipitation 0.00 in - - ()
Sea Level Pressure  
Sea Level Pressure 29.88 in    
Wind  
Wind Speed 15 mph (SSW)    
Max Wind Speed 24 mph    
Max Gust Speed 30 mph    
Visibility 10 miles    
Events      
Averages and records for this station are not official NWS values.
T = Trace of Precipitation, MM = Missing Value Source: NWS Daily Summary

Daily Weather History Graph

Daily Weather History Graph

Search for Another Location

Airport or City:

Trip Planner

Search our weather history database for the weather conditions in past years. The results will help you decide how hot, cold, wet, or windy it might be!

Date:

Astronomy

Apr. 06, 2013 Rise Set
Actual Time 7:07 AM CDT 7:53 PM CDT
Civil Twilight 6:41 AM CDT 8:19 PM CDT
Nautical Twilight 6:10 AM CDT 8:49 PM CDT
Astronomical Twilight 5:39 AM CDT 9:21 PM CDT
Moon 4:43 AM CDT (4/6) 4:30 PM CDT (4/6)
Length of Visible Light 13h 38m
Length of Day
12h 46m
Waning Crescent, 15% of the Moon is Illuminated
Apr 6
Waning Crescent
Apr 10
New
Apr 18
First Quarter
Apr 25
Full
May 2
Last Quarter

Hourly Weather History & Observations

Time (CDT) Temp. Dew Point Humidity Pressure Visibility Wind Dir Wind Speed Gust Speed Precip Events Conditions
12:15 AM 59.0 °F 50.0 °F 72% 29.95 in 10.0 mi South 16.1 mph 23.0 mph N/A   Clear
12:35 AM 59.0 °F 50.0 °F 72% 29.94 in 10.0 mi South 17.3 mph 27.6 mph N/A   Clear
12:55 AM 59.0 °F 50.0 °F 72% 29.94 in 10.0 mi South 17.3 mph 25.3 mph N/A   Clear
1:15 AM 59.0 °F 50.0 °F 72% 29.94 in 10.0 mi South 19.6 mph 25.3 mph N/A   Clear
1:35 AM 59.0 °F 50.0 °F 72% 29.93 in 10.0 mi South 19.6 mph 25.3 mph N/A   Clear
1:55 AM 59.0 °F 50.0 °F 72% 29.93 in 10.0 mi South 16.1 mph 26.5 mph N/A   Clear
2:15 AM 59.0 °F 50.0 °F 72% 29.92 in 10.0 mi South 17.3 mph 23.0 mph N/A   Clear
2:35 AM 59.0 °F 50.0 °F 72% 29.91 in 10.0 mi South 18.4 mph 21.9 mph N/A   Clear
2:55 AM 59.0 °F 50.0 °F 72% 29.90 in 10.0 mi South 16.1 mph 23.0 mph N/A   Clear
3:15 AM 59.0 °F 50.0 °F 72% 29.90 in 10.0 mi South 15.0 mph 23.0 mph N/A   Clear
3:35 AM 59.0 °F 50.0 °F 72% 29.89 in 10.0 mi South 18.4 mph 25.3 mph N/A   Clear
3:55 AM 59.0 °F 50.0 °F 72% 29.89 in 10.0 mi South 13.8 mph 26.5 mph N/A   Clear
4:15 AM 59.0 °F 50.0 °F 72% 29.89 in 10.0 mi South 15.0 mph 23.0 mph N/A   Clear
4:35 AM 59.0 °F 50.0 °F 72% 29.89 in 10.0 mi South 18.4 mph 23.0 mph N/A   Clear
4:55 AM 59.0 °F 50.0 °F 72% 29.90 in 10.0 mi South 16.1 mph - N/A   Clear
5:15 AM 59.0 °F 50.0 °F 72% 29.87 in 10.0 mi South 18.4 mph 26.5 mph N/A   Clear
5:35 AM 59.0 °F 50.0 °F 72% 29.87 in 10.0 mi South 18.4 mph 27.6 mph N/A   Clear
6:15 AM 59.0 °F 50.0 °F 72% 29.88 in 10.0 mi South 15.0 mph 20.7 mph N/A   Clear
6:35 AM 59.0 °F 50.0 °F 72% 29.87 in 10.0 mi South 17.3 mph 21.9 mph N/A   Clear
6:55 AM 59.0 °F 50.0 °F 72% 29.87 in 10.0 mi South 13.8 mph 23.0 mph N/A   Clear
7:15 AM 59.0 °F 50.0 °F 72% 29.86 in 10.0 mi South 18.4 mph 26.5 mph N/A   Clear
7:35 AM 59.0 °F 51.8 °F 77% 29.87 in 10.0 mi South 17.3 mph 21.9 mph N/A   Clear
7:55 AM 59.0 °F 51.8 °F 77% 29.86 in 10.0 mi South 16.1 mph 20.7 mph N/A   Clear
8:15 AM 59.0 °F 51.8 °F 77% 29.87 in 10.0 mi South 16.1 mph 21.9 mph N/A   Clear
8:35 AM 60.8 °F 51.8 °F 72% 29.96 in 10.0 mi WNW 11.5 mph 24.2 mph N/A   Clear
8:55 AM 60.8 °F 51.8 °F 72% 29.92 in 10.0 mi SSW 11.5 mph 20.7 mph N/A   Clear
9:15 AM 62.6 °F 51.8 °F 68% 29.91 in 10.0 mi South 17.3 mph 20.7 mph N/A   Clear
9:35 AM 62.6 °F 51.8 °F 68% 29.90 in 10.0 mi SSW 19.6 mph 24.2 mph N/A   Clear
9:55 AM 64.4 °F 51.8 °F 64% 29.90 in 10.0 mi SSW 21.9 mph 25.3 mph N/A   Clear
10:15 AM 66.2 °F 53.6 °F 64% 29.88 in 10.0 mi South 20.7 mph 26.5 mph N/A   Clear
10:35 AM 66.2 °F 51.8 °F 60% 29.88 in 10.0 mi SSW 19.6 mph 27.6 mph N/A   Clear
10:55 AM 68.0 °F 53.6 °F 60% 29.89 in 10.0 mi SSW 18.4 mph 26.5 mph N/A   Clear
11:15 AM 69.8 °F 53.6 °F 56% 29.89 in 10.0 mi SW 18.4 mph 28.8 mph N/A   Clear
11:35 AM 71.6 °F 53.6 °F 53% 29.88 in 10.0 mi SSW 24.2 mph 29.9 mph N/A   Clear
11:55 AM 71.6 °F 53.6 °F 53% 29.89 in 10.0 mi SSW 24.2 mph 28.8 mph N/A   Clear
12:15 PM 71.6 °F 53.6 °F 53% 29.88 in 10.0 mi SSW 19.6 mph 28.8 mph N/A   Clear
12:35 PM 71.6 °F 53.6 °F 53% 29.88 in 10.0 mi SW 18.4 mph 25.3 mph N/A   Clear
12:55 PM 73.4 °F 55.4 °F 53% 29.87 in 10.0 mi SW 21.9 mph 25.3 mph N/A   Clear
1:15 PM 73.4 °F 55.4 °F 53% 29.87 in 10.0 mi SSW 21.9 mph 26.5 mph N/A   Clear
1:35 PM 73.4 °F 53.6 °F 50% 29.86 in 10.0 mi SSW 17.3 mph 23.0 mph N/A   Clear
1:55 PM 75.2 °F 55.4 °F 50% 29.86 in 10.0 mi SSW 19.6 mph - N/A   Clear
2:15 PM 75.2 °F 55.4 °F 50% 29.86 in 10.0 mi WSW 13.8 mph 23.0 mph N/A   Clear
2:35 PM 77.0 °F 55.4 °F 47% 29.85 in 10.0 mi WSW 10.4 mph 17.3 mph N/A   Clear
2:55 PM 77.0 °F 55.4 °F 47% 29.85 in 10.0 mi SW 9.2 mph - N/A   Clear
3:15 PM 77.0 °F 55.4 °F 47% 29.84 in 10.0 mi West 9.2 mph 18.4 mph N/A   Clear
3:35 PM 77.0 °F 55.4 °F 47% 29.84 in 10.0 mi West 10.4 mph 17.3 mph N/A   Clear
3:55 PM 77.0 °F 55.4 °F 47% 29.83 in 10.0 mi SSW 12.7 mph 19.6 mph N/A   Clear
4:15 PM 77.0 °F 55.4 °F 47% 29.83 in 10.0 mi SSW 9.2 mph - N/A   Clear
4:35 PM 78.8 °F 55.4 °F 44% 29.82 in 10.0 mi SSW 13.8 mph 18.4 mph N/A   Clear
4:55 PM 77.0 °F 55.4 °F 47% 29.82 in 10.0 mi SW 15.0 mph - N/A   Clear
5:15 PM 77.0 °F 53.6 °F 44% 29.82 in 10.0 mi SSW 13.8 mph - N/A   Clear
5:35 PM 77.0 °F 55.4 °F 47% 29.83 in 10.0 mi SW 10.4 mph 18.4 mph N/A   Clear
5:55 PM 77.0 °F 55.4 °F 47% 29.83 in 10.0 mi SW 11.5 mph 18.4 mph N/A   Clear
6:15 PM 77.0 °F 55.4 °F 47% 29.84 in 10.0 mi SSW 9.2 mph - N/A   Clear
6:35 PM 73.4 °F 55.4 °F 53% 29.84 in 10.0 mi SW 6.9 mph - N/A   Clear
6:55 PM 73.4 °F 55.4 °F 53% 29.85 in 10.0 mi WSW 8.1 mph - N/A   Clear
7:15 PM 71.6 °F 55.4 °F 57% 29.84 in 10.0 mi SW 4.6 mph - N/A   Clear
7:35 PM 71.6 °F 55.4 °F 57% 29.85 in 10.0 mi SW 3.5 mph - N/A   Clear
8:15 PM 71.6 °F 55.4 °F 57% 29.85 in 10.0 mi SW 3.5 mph - N/A   Clear
8:35 PM 71.6 °F 55.4 °F 57% 29.85 in 10.0 mi South 3.5 mph - N/A   Clear
8:55 PM 69.8 °F 55.4 °F 60% 29.86 in 10.0 mi SSE 5.8 mph - N/A   Clear
9:15 PM 68.0 °F 55.4 °F 64% 29.86 in 10.0 mi South 5.8 mph - N/A   Clear
9:55 PM 68.0 °F 57.2 °F 68% 29.88 in 10.0 mi South 5.8 mph - N/A   Clear
10:15 PM 66.2 °F 55.4 °F 68% 29.89 in 10.0 mi South 4.6 mph - N/A   Clear
10:35 PM 64.4 °F 55.4 °F 73% 29.89 in 10.0 mi South 5.8 mph - N/A   Clear
11:15 PM 64.4 °F 55.4 °F 73% 29.89 in 10.0 mi SSE 3.5 mph - N/A   Clear
11:35 PM 64.4 °F 55.4 °F 73% 29.90 in 10.0 mi SSE 3.5 mph - N/A   Clear
11:55 PM 64.4 °F 55.4 °F 73% 29.90 in 10.0 mi South 3.5 mph - N/A   Clear